Regional Weather Roundup
Issued by NWS

Home | Current Version | Previous Version | Text Only | Print | Product List | Glossary Off
Versions: 1 2 3 4 5 6 7 8 9 10 11 12 13 14 15 16 17 18 19 20 21 22 23 24 25 26 27 28 29 30 31 32 33 34 35 36 37 38 39 40 41 42 43 44 45 46 47 48 49 50

007
ASUS45 KBOU 300907
RWRCO

WEATHER ROUNDUP FOR COLORADO
NATIONAL WEATHER SERVICE DENVER/BOULDER CO
300 AM MDT THU MAR 30 2017

NOTE: "FAIR" INDICATES FEW OR NO CLOUDS BELOW 12000 FEET WITH NO
SIGNIFICANT WEATHER AND/OR OBSTRUCTIONS TO VISIBILITY.

COZ001>005-013-030-031-301000-
...NORTHWEST COLORADO...

CITY           SKY/WX    TMP DP  RH WIND       PRES   REMARKS
CRAIG          CLOUDY    35  28  75 CALM      30.02F
HAYDEN         CLOUDY    34  25  69 SE5       30.03S WCI  30
MEEKER         CLOUDY    33  28  81 E5        30.04F WCI  29
MOUNT WERNER   NOT AVBL
STEAMBOAT SPGS CLOUDY    32  28  86 CALM      30.03S
WALDEN         NOT AVBL
$$

COZ006>008-011-301000-
...WEST CENTRAL VALLEYS...

CITY           SKY/WX    TMP DP  RH WIND       PRES   REMARKS
GRAND JUNCTION FAIR      41  30  65 E5        30.00F
MONTROSE       FAIR      37  29  72 SE8       30.06F
EAGLE          MOCLDY    32  27  81 NE3       30.08S
RIFLE          MOCLDY    34  26  72 CALM      30.05R
DELTA          FAIR      39  27  62 NE7       30.04F
NUCLA          FAIR      36  27  69 E9        30.09F
$$

COZ017>023-064>068-301000-
...SOUTHWEST COLORADO...

CITY           SKY/WX    TMP DP  RH WIND       PRES   REMARKS
DURANGO        FAIR      31  19  61 N3        30.05R
CORTEZ         FAIR      30  25  81 NE6       30.06F WCI  24
PAGOSA SPRINGS FAIR      31  19  61 CALM      30.06F
TELLURIDE      NOT AVBL
WOLF CREEK PAS FAIR      27   3  36 W9        30.20F WCI  17
$$

COZ009-010-012-014-032>034-037-058>063-301000-
...CENTRAL COLORADO...

CITY           SKY/WX    TMP DP  RH WIND       PRES   REMARKS
ASPEN          CLOUDY    33  23  66 VRB6      30.06F WCI  28
BUENA VISTA    FAIR      36  20  50 CALM      30.01F
COPPER MTN     FAIR      23  16  74 MISG      30.10F
BERTHOUD PASS  CLOUDY    18   7  62 NW28G37   30.05F HAZE    WCI  -1
COTTONWOOD PAS FAIR      37  10  32 W7G20     30.03F
GUNNISON       FAIR      29  23  78 N6        30.08F WCI  23
KREMMLING      CLOUDY    34  30  86 CALM      30.06F
LEADVILLE      FAIR      20  14  77 NE9       30.06F WCI   9
MONARCH PASS   FAIR      19  18  93 W36       30.19F WCI  -1
SALIDA         FAIR      36  22  56 W5        30.09F
SUNLIGHT       CLOUDY    27  19  74 SW7       30.15F WCI  19
WILKERSON PASS FAIR      27  16  63 NW16G24   30.06F WCI  14
$$

COZ069>075-301000-
...SAN LUIS VALLEY/SANGRE DE CRISTO MOUNTAINS...

CITY           SKY/WX    TMP DP  RH WIND       PRES   REMARKS
ALAMOSA        FAIR      28  21  75 W5        30.05F WCI  23
LA VETA PASS   NOT AVBL
SAGUACHE       FAIR      34  21  60 N10       30.06F WCI  26
$$

COZ035-036-038>040-301000-
...NORTHERN COLORADO FRONT RANGE...

CITY           SKY/WX    TMP DP  RH WIND       PRES   REMARKS
DENVER INTL AP FAIR      36  29  75 S9        29.87F
DMNS CITY PARK   N/A     40  30  67 S7        29.87F
AURORA         CLEAR     36  31  83 S8        29.88F
FRONT RANGE AP FAIR      36  32  87 S6        29.89F
ERIE MUNI ARPT FAIR      32  30  94 SW3         N/A
BOULDER MUN AP FAIR      39  32  75 CALM      29.87F
CENTENNIAL     FAIR      37  29  72 SW3       29.89F
BROOMFIELD     FAIR      39  32  75 CALM      29.89F
FORT COLLINS   FAIR      34  32  92 N7        29.88F WCI  28
LONGMONT       FAIR      36  31  84 CALM      29.90F
$$

COZ041-046-047-076>085-087-088-301000-
...PIKES PEAK/PALMER DIVIDE AND SOUTHERN FOOTHILLS...

CITY           SKY/WX    TMP DP  RH WIND       PRES   REMARKS
COLO. SPRINGS  FAIR      33  28  81 NE6       29.92F WCI  28
A. F. ACADEMY  NOT AVBL
SCHRIEVER AFB  FAIR      36  31  84 W9        29.92F
ELLICOTT       FAIR     N/A N/A N/A NE5       29.90F
FALCON         FAIR      32  29  91 NW7       29.94F WCI  25
FORT CARSON    FAIR      33  28  82 NW5       29.90F WCI  29
LIMON          FAIR      30  29  96 N7        29.89F WCI  23
MONUMENT HILL  FAIR      32  27  80 SW10      29.93F WCI  24
TRINIDAD       FAIR      35  30  82 SW16      29.92F WCI  25
$$

COZ042>045-048>051-090-091-301000-
...NORTHEAST COLORADO...

CITY           SKY/WX    TMP DP  RH WIND       PRES   REMARKS
GREELEY ARPT   FAIR      31  30  96 NW5       29.89F WCI  26
AKRON          FAIR      33  30  88 W8        29.86F WCI  26
BURLINGTON     FAIR      36  33  89 NW14      29.85F
WRAY           FAIR     N/A N/A N/A W5        29.86F
STERLING       FAIR      34  32  93 NW3       29.86F
HOLYOKE        FAIR      37  36  93 W10       29.86F
FORT MORGAN    FAIR      37  33  87 W3        29.88F
$$

COZ086-089-092>099-301000-
...SOUTHEAST COLORADO...

CITY           SKY/WX    TMP DP  RH WIND       PRES   REMARKS
PUEBLO         FAIR      36  33  89 W3        29.89F
LA JUNTA       FAIR      35  32  88 W9        29.89F WCI  28
LAMAR          FAIR      35  32  88 W8        29.86F WCI  29
SPRINGFIELD      N/A     36  34  92 W14       29.86F
$$




USA.gov is the U.S. government's official web portal to all federal, state and local government web resources and services.